Theta_e
354 363 365 366 366 367 367 367 364 364 363 362 360 361 362 361 362 362 363 364 363 363 359 359 358 357 357 356 355 356 356 356 355 355 354 353 351 351 351 349 348 345 349
357 364 364 365 366 366 367 366 364 363 363 361 361 362 361 361 362 362 363 364 363 360 358 356 356 355 355 355 354 355 355 355 355 354 353 353 352 350 349 350 347 348 349
358 365 363 364 365 366 366 365 364 363 362 362 362 361 361 361 362 362 363 363 363 359 357 355 354 354 354 354 354 354 354 354 354 353 352 351 347 352 348 349 348 348 349
360 365 362 364 365 365 365 364 364 363 363 362 361 361 361 361 362 362 362 362 361 357 355 353 354 354 354 354 354 354 354 353 351 351 350 349 345 349 349 347 348 348 348
361 364 363 364 364 364 364 363 363 363 363 362 362 362 361 362 362 362 361 361 358 355 353 353 354 354 354 355 355 355 355 354 353 354 353 353 353 350 350 349 348 347 348
360 361 362 363 363 363 363 363 362 362 362 362 362 361 361 362 361 361 361 360 357 354 353 354 354 354 353 353 353 352 351 351 350 350 350 350 350 352 351 351 351 347 347
357 360 361 362 363 363 363 362 362 361 361 361 362 361 361 361 360 360 360 359 357 353 353 354 355 354 353 352 351 350 350 349 346 347 347 348 349 352 352 352 352 351 348
355 359 358 362 361 361 361 361 360 360 360 360 361 360 361 360 360 360 360 359 357 354 353 354 354 354 353 352 351 350 351 348 347 345 346 344 352 351 350 354 354 353 353
355 357 358 356 360 361 360 359 359 358 358 358 358 359 359 359 359 359 359 358 356 354 353 353 353 353 352 351 351 351 350 349 345 341 339 340 347 348 350 354 355 355 354
354 355 355 354 353 354 357 359 359 358 358 357 358 358 358 358 358 358 355 356 355 353 352 351 351 351 351 352 351 350 348 347 343 339 338 339 340 336 340 350 355 358 357
351 354 355 353 352 350 350 356 358 358 357 357 357 357 355 352 355 355 353 356 355 354 352 350 349 349 348 348 348 346 344 339 338 337 334 343 336 338 340 349 355 358 359
349 352 354 357 353 351 348 356 354 353 354 354 353 355 352 351 353 349 354 355 355 354 353 353 351 349 347 336 338 343 334 333 335 335 333 340 335 340 342 346 355 358 358
350 352 354 360 359 354 351 353 352 352 353 355 357 358 356 354 353 351 349 352 353 352 348 350 350 348 344 342 339 338 336 335 333 331 335 340 340 341 343 347 350 354 358
349 351 355 359 360 358 352 352 353 352 354 355 356 360 357 355 355 354 350 350 352 349 349 348 345 347 347 346 344 341 339 337 335 333 336 341 341 341 342 347 351 352 352
351 351 353 358 361 360 356 353 353 353 354 356 356 359 357 355 355 356 355 354 353 353 352 353 351 352 351 351 349 347 345 343 342 339 336 348 343 343 342 345 350 353 354
354 354 355 356 360 362 359 357 355 356 355 356 356 357 359 358 358 355 356 355 355 355 354 354 353 353 352 353 352 352 352 352 350 349 345 342 345 343 343 345 349 352 355
342 357 357 357 360 362 361 359 357 355 354 355 356 360 360 361 360 359 355 355 354 356 359 357 357 356 354 353 352 352 352 353 352 351 350 347 346 343 343 344 346 348 352
328 341 359 356 358 361 361 359 357 357 357 356 358 359 361 361 361 359 355 356 357 358 356 355 355 354 352 352 352 352 353 354 354 354 352 350 346 345 345 344 345 347 350
332 334 343 358 357 361 362 359 359 361 359 358 358 358 360 359 358 357 356 358 360 358 356 355 354 355 354 353 352 352 352 351 352 351 352 353 352 348 346 346 346 346 347
333 339 340 351 357 359 359 359 358 356 357 358 356 358 359 361 358 360 358 358 357 354 353 352 353 353 350 350 347 345 347 347 348 349 350 351 352 352 350 349 348 345 344
337 345 348 352 358 358 354 355 352 351 354 355 359 359 359 358 358 359 358 355 355 350 349 349 346 345 342 343 339 337 338 343 346 346 346 346 347 350 351 351 349 347 345
339 343 349 353 354 354 353 354 352 352 354 356 355 355 353 352 351 350 347 340 341 335 340 341 341 333 331 334 331 331 326 328 331 337 338 344 347 346 347 349 350 350 351
336 338 344 348 353 355 355 348 340 341 340 333 335 334 338 338 338 339 338 337 336 337 328 335 336 336 326 328 336 328 322 319 324 329 339 336 345 343 345 347 348 349 352
333 340 344 347 348 349 349 344 340 330 328 327 329 329 332 337 335 335 337 336 338 332 339 333 331 333 334 326 325 327 337 332 323 320 328 333 338 343 347 343 345 349 350
335 337 336 336 335 333 337 340 332 333 328 329 333 334 337 337 336 334 335 336 338 335 340 339 338 338 331 327 323 322 327 323 329 322 319 323 329 333 336 337 340 342 351
332 331 331 330 329 331 331 334 334 332 329 328 331 329 327 328 329 332 332 334 336 336 336 335 338 338 338 336 329 327 322 319 320 320 319 324 324 329 332 334 337 340 344
Wind_Speed
14 20 14 12 11 11 11 15 17 16 16 16 17 17 15 15 15 16 14 12 11 11 11 10 11 10 10 10 11 10 10 10 9 9 8 7 7 7 7 6 7 9 7
18 19 15 14 13 12 11 14 16 16 16 17 17 16 15 15 15 15 13 11 11 11 11 10 9 9 10 10 10 10 9 8 7 7 6 7 6 5 5 5 3 11 7
18 17 18 15 13 13 12 13 15 16 16 17 17 16 15 15 14 13 11 11 11 11 10 9 9 9 9 9 9 8 8 7 5 4 6 7 9 5 4 4 3 5 6
17 16 18 16 15 14 13 13 16 16 16 16 17 16 15 13 12 12 11 10 10 9 9 8 8 8 8 9 8 7 6 6 5 5 9 3 5 8 5 4 3 4 4
16 16 17 16 16 16 15 13 14 15 16 16 16 15 14 13 12 11 10 9 10 9 9 9 8 7 7 6 6 5 4 4 3 8 2 1 3 12 5 4 6 5 5
16 16 18 15 15 15 16 16 15 14 15 16 16 14 13 12 12 11 10 8 8 7 7 7 7 6 6 5 4 4 3 3 6 7 3 1 6 12 7 6 6 2 3
17 16 18 15 15 15 16 16 16 16 14 14 14 13 12 12 12 10 9 9 8 8 7 7 6 5 5 4 4 3 4 5 10 5 5 4 5 9 6 7 7 5 5
16 16 17 15 14 13 14 15 15 14 15 14 14 13 12 12 12 11 10 9 8 7 7 7 6 5 4 4 4 5 6 7 10 7 6 5 9 3 6 8 8 8 8
16 16 16 17 15 13 12 12 13 13 12 12 12 11 11 11 10 9 8 7 7 6 5 5 5 6 6 6 6 6 7 8 11 8 7 6 12 2 6 8 10 9 9
15 15 17 16 16 15 14 10 10 11 11 10 10 10 10 10 8 8 7 7 6 6 6 5 5 6 6 6 6 7 7 11 13 11 7 2 9 2 6 10 11 11 11
13 13 14 15 15 14 15 13 9 9 8 8 9 8 9 9 11 12 9 10 7 6 6 6 6 6 6 9 10 9 8 8 10 6 6 11 4 4 7 8 11 12 12
15 15 13 13 14 13 10 14 13 12 10 10 10 11 9 8 8 6 6 8 6 7 8 9 8 8 9 9 8 12 8 8 6 8 7 8 2 7 9 9 10 13 14
14 12 13 12 11 12 10 9 8 8 8 8 11 10 9 6 6 7 5 7 8 12 8 11 10 9 10 6 6 6 7 7 6 7 7 7 7 11 11 11 12 13 14
13 14 13 13 12 12 8 8 9 8 8 8 10 11 8 6 7 6 6 6 6 6 6 7 6 6 8 9 10 10 10 9 7 6 8 11 12 14 15 13 14 15 16
10 12 13 14 13 12 11 9 8 8 8 9 8 10 8 8 6 7 7 6 6 6 6 7 7 6 8 9 10 10 11 11 12 8 8 9 13 14 16 16 15 17 18
7 9 11 14 13 13 12 11 8 7 8 7 7 8 11 8 6 7 7 8 7 7 7 7 7 7 8 9 10 11 11 12 12 13 10 11 15 15 17 19 18 18 18
6 8 11 12 13 12 12 10 9 8 9 8 8 8 10 9 8 8 7 7 7 7 7 8 9 9 9 11 12 12 11 12 13 14 12 11 12 17 19 20 21 20 18
2 8 10 10 12 12 10 9 8 7 7 8 7 8 10 10 9 8 8 7 6 6 7 7 8 8 9 9 9 10 10 11 13 14 14 13 12 12 13 21 20 21 20
2 6 8 9 10 11 11 9 9 9 8 6 5 6 7 9 9 7 6 5 5 7 7 7 7 8 8 10 11 10 11 11 12 12 15 15 15 14 12 13 19 20 21
1 1 2 6 8 10 5 6 7 8 7 5 5 5 6 6 8 8 7 4 5 5 6 5 7 9 8 10 10 12 12 12 12 13 14 14 15 17 16 16 13 13 22
6 5 1 6 10 8 10 9 6 8 7 7 7 7 7 7 7 7 8 7 7 7 7 7 8 10 9 10 10 11 12 13 13 12 13 13 15 16 16 14 12 12 11
10 9 7 10 10 9 6 6 5 4 2 3 3 4 5 6 6 6 5 4 4 6 6 8 8 9 10 9 11 11 13 12 13 12 12 10 13 12 14 15 16 15 14
8 6 7 8 9 9 10 8 7 6 5 4 4 3 4 4 5 4 5 6 5 6 8 6 8 10 10 10 11 12 13 14 13 12 12 12 11 11 12 13 15 14 13
7 8 9 10 10 11 13 10 9 7 7 4 6 4 4 5 5 6 6 7 7 8 8 8 9 9 9 11 10 10 12 13 14 16 13 13 12 12 12 13 14 14 14
12 13 12 11 10 8 6 5 7 5 5 3 2 1 3 4 5 6 6 8 9 9 9 9 11 10 10 11 12 12 12 11 12 14 16 13 14 14 14 15 14 13 14
14 13 12 12 9 8 8 7 6 5 2 1 1 3 4 5 5 7 8 8 9 10 12 12 12 13 12 12 12 12 13 13 12 14 15 15 15 14 14 14 15 12 12
Wind_Direction
151 141 150 142 135 136 141 148 148 143 140 138 142 147 150 151 152 148 145 139 128 122 120 113 115 122 125 127 127 125 121 121 118 117 120 127 133 136 136 139 185 119 119
149 144 150 140 136 139 143 148 145 140 140 144 147 150 154 157 156 148 141 132 125 126 121 121 126 131 133 133 133 132 131 128 130 126 136 147 144 140 154 163 299 101 127
145 147 158 138 137 139 145 145 141 139 143 146 150 154 157 158 153 142 135 131 129 127 129 134 138 140 139 138 140 139 135 141 141 141 221 198 128 176 171 173 143 128 141
143 152 155 142 141 138 140 141 137 141 144 147 151 153 156 154 145 135 133 133 130 134 139 144 149 149 149 151 150 145 149 152 158 188 224 107 137 147 184 186 177 163 151
153 158 144 149 144 141 138 135 136 141 145 149 150 153 154 149 139 135 136 138 142 150 153 160 161 157 157 159 159 159 167 173 197 240 352 236 312 135 176 203 187 190 217
155 161 138 150 146 144 142 141 141 145 149 149 150 152 151 145 139 139 141 140 150 155 162 168 169 169 176 181 182 189 213 234 261 257 298 220 273 121 167 205 258 260 210
160 159 158 154 152 153 150 150 149 151 152 151 150 152 149 144 142 144 146 151 160 166 173 179 179 186 193 200 213 233 262 275 275 301 289 289 253 134 187 213 229 236 227
162 158 156 156 156 157 155 154 153 155 155 154 154 155 152 151 152 154 158 164 169 173 180 188 191 204 215 226 241 257 267 278 270 280 293 286 76 130 207 230 227 234 241
165 165 161 169 164 158 160 161 156 156 156 155 156 155 154 155 157 159 163 165 170 175 185 195 202 219 228 238 246 255 267 274 281 282 281 271 91 67 251 248 241 238 239
172 173 168 170 172 177 169 162 159 158 156 154 156 154 156 156 162 168 166 178 187 193 201 210 219 235 248 256 261 268 276 277 260 271 270 289 70 341 270 265 246 237 237
178 176 176 170 174 184 171 161 155 155 144 142 151 148 159 196 182 172 197 144 190 208 219 227 234 239 250 244 233 233 255 258 270 269 277 92 72 279 262 271 241 238 232
184 178 180 175 180 183 175 158 183 176 185 188 186 175 202 199 192 221 172 173 206 219 228 229 232 236 237 253 209 206 232 255 278 272 272 104 187 259 258 252 243 234 235
188 185 189 172 186 188 186 173 181 180 186 190 193 187 205 188 193 207 212 203 221 205 238 203 214 226 239 260 264 265 270 257 258 266 265 158 227 252 252 251 244 240 237
190 190 188 179 189 199 187 188 181 190 190 197 195 194 199 207 195 226 214 218 216 232 235 242 254 250 265 257 262 271 266 265 265 262 261 187 222 244 250 245 240 241 241
201 196 192 187 188 189 202 185 198 203 193 205 193 195 213 215 210 216 228 237 240 236 233 243 254 260 265 258 257 263 272 274 276 274 276 203 214 234 250 247 241 241 243
235 203 203 191 193 192 198 196 191 204 192 213 205 206 211 223 217 234 226 233 240 242 252 259 257 269 267 270 267 266 266 272 270 269 266 269 207 221 234 250 245 234 235
229 229 201 198 195 198 199 198 200 196 214 204 211 215 218 211 214 250 244 244 246 242 249 254 257 250 254 252 258 256 258 260 264 265 268 262 259 212 221 230 238 242 237
284 199 197 197 187 192 197 196 206 210 213 217 209 213 213 222 225 205 236 240 239 242 242 248 256 260 259 265 268 268 267 265 264 259 257 260 258 262 222 220 227 237 241
86 203 196 194 190 189 197 194 203 201 222 214 221 228 213 222 222 228 241 255 234 246 248 263 281 278 277 274 269 267 263 263 263 266 269 264 259 256 261 249 214 226 235
136 5 221 182 160 189 181 209 201 199 211 224 230 225 212 221 219 215 235 254 260 239 251 260 254 263 262 278 296 290 285 282 275 271 265 260 257 257 254 251 256 236 225
136 83 300 191 173 179 165 205 193 209 191 189 213 214 217 211 213 196 225 218 226 248 273 290 269 251 259 274 274 268 267 254 252 259 259 268 269 266 258 256 251 252 250
163 147 179 216 176 189 168 153 197 157 243 171 178 170 183 194 207 223 261 268 265 285 251 263 269 279 273 271 272 279 280 271 260 258 257 251 270 272 271 256 253 257 254
162 172 160 185 174 167 169 152 134 130 134 161 152 170 177 198 213 233 237 259 277 262 274 260 258 270 285 287 274 282 285 278 292 295 286 279 274 264 273 266 262 262 254
168 161 172 160 159 157 170 154 157 163 168 155 183 173 189 219 240 248 255 267 256 277 293 266 252 261 271 274 276 264 260 283 286 286 277 275 268 261 249 259 269 264 252
158 151 134 115 114 98 77 105 165 165 134 147 140 148 257 244 251 257 267 271 270 262 270 269 268 260 266 271 277 280 279 276 264 271 283 278 269 264 264 265 255 257 259
135 130 123 115 100 86 87 81 85 106 108 236 196 268 262 275 268 261 271 274 274 275 269 269 267 262 258 268 273 276 275 277 278 281 281 280 279 273 267 274 276 261 243